SCP
1 1 1 1 2 2 2 1 1 0 0 0 0 0 0 0 0 0 0 0 0 0 0 0 0 0 0 0 0 0 0 0 0 0 0 0 0 0
1 1 1 1 1 2 2 2 1 0 0 0 0 0 0 0 0 0 0 0 0 0 0 0 0 0 0 0 0 0 0 0 0 0 0 0 0 0
1 1 1 1 1 1 2 1 1 0 0 0 0 0 0 0 0 0 0 0 0 0 0 0 0 0 0 0 0 0 0 0 0 0 0 0 0 0
0 0 0 1 1 1 1 1 0 0 0 0 0 0 0 0 0 0 0 0 0 0 0 0 0 0 0 0 0 0 0 0 0 0 0 0 0 0
0 0 0 0 1 1 1 0 0 0 0 0 0 0 0 0 0 0 0 0 0 0 0 0 0 0 0 0 0 0 0 0 0 0 0 0 0 0
0 0 0 0 0 0 0 0 0 0 0 0 0 0 0 0 0 0 0 0 0 0 0 0 0 0 0 0 0 0 0 0 0 0 0 0 0 0
0 0 0 0 0 0 0 0 0 0 0 0 0 0 0 0 0 0 0 0 0 0 0 0 0 0 0 0 0 0 0 0 0 0 0 0 0 0
0 0 0 0 0 0 0 0 0 0 0 0 0 0 0 0 0 0 0 0 0 0 0 0 0 0 0 0 0 0 0 0 0 0 0 0 0 0
0 0 0 0 0 0 0 0 0 0 0 0 0 0 0 0 0 0 0 0 0 0 0 0 0 0 0 0 0 0 0 0 0 0 0 0 0 0
0 0 0 0 0 0 0 0 0 0 0 0 0 0 0 0 0 0 0 0 0 0 0 0 0 0 0 0 0 0 0 0 0 0 0 0 0 0
0 0 0 0 0 0 0 0 0 0 0 0 0 0 0 0 0 0 0 0 0 0 0 0 0 0 0 0 0 0 0 0 0 0 0 0 0 0
0 0 0 0 0 0 0 0 0 0 0 0 0 0 0 0 0 0 0 0 0 0 0 0 0 0 0 0 0 0 0 0 0 0 0 0 0 0
0 0 0 0 0 0 0 0 0 0 0 0 0 0 0 0 0 0 0 0 0 0 0 0 0 0 0 0 0 0 0 0 0 0 0 0 0 0
0 0 0 0 0 0 0 0 0 0 0 0 0 0 0 0 0 0 0 0 0 0 0 0 0 0 0 0 0 0 0 0 0 0 0 0 0 0
0 0 0 0 0 0 0 0 0 0 0 0 0 0 0 0 0 0 0 0 0 0 0 0 0 0 0 0 0 0 0 0 0 0 0 0 0 0
0 0 0 0 0 0 0 0 0 0 0 0 0 0 0 0 0 0 0 0 0 0 0 0 0 0 0 0 0 0 0 0 0 0 0 0 0 0
0 0 0 0 0 0 0 0 0 0 0 0 0 0 0 0 0 0 0 0 0 0 0 0 0 0 0 0 0 0 0 0 0 0 0 0 0 0
0 0 0 0 0 0 0 0 0 0 0 0 0 0 0 0 0 0 0 0 0 0 0 0 0 0 0 0 0 0 0 0 0 0 0 0 0 0
0 0 0 0 0 0 0 0 0 0 0 0 0 0 0 0 0 0 0 0 0 0 0 0 0 0 0 0 0 0 0 0 0 0 0 0 0 0
0 0 0 0 0 0 0 0 0 0 0 0 0 0 0 0 0 0 0 0 0 0 0 0 0 0 0 0 0 0 0 0 0 0 0 0 0 0
0 0 0 0 0 0 0 0 0 0 0 0 0 0 0 0 0 0 0 0 0 0 0 0 0 0 0 0 0 0 0 0 0 0 0 0 0 0
0 0 0 0 0 0 0 0 0 0 0 0 0 0 0 0 0 0 0 0 0 0 0 0 0 0 0 0 0 0 0 0 0 0 0 0 0 0
0 0 0 0 0 0 0 0 0 0 0 0 0 0 0 0 0 0 0 0 0 0 0 0 0 0 0 0 0 0 0 0 0 0 0 0 0 0
Wind_Speed
1 2 2 3 4 4 5 7 8 7 4 3 2 3 4 4 7 5 6 8 8 7 6 6 5 4 4 4 4 3 3 3 2 3 3 4 5 5
4 6 5 4 5 5 5 4 5 7 6 4 3 4 5 7 8 5 6 10 8 7 7 6 5 5 5 4 4 3 2 1 0 1 2 3 4 5
6 7 7 6 6 5 5 5 6 6 8 5 4 5 5 6 6 4 5 6 5 8 8 7 6 6 5 5 5 4 3 2 2 3 3 4 5 5
7 7 7 7 7 6 5 6 5 5 9 10 6 5 5 5 5 4 5 7 6 9 10 9 8 7 7 6 6 5 4 4 4 4 5 6 6 7
7 8 8 7 7 6 6 6 6 7 7 9 7 5 4 4 4 4 4 3 6 8 10 10 9 9 9 8 8 7 6 6 6 6 6 6 7 8
9 8 7 6 6 7 7 7 8 8 8 7 7 5 4 3 3 2 2 3 3 6 7 8 9 10 10 9 9 9 8 8 8 7 7 7 7 8
10 10 11 13 12 8 7 7 7 6 6 6 6 5 4 3 2 2 2 2 1 2 2 4 5 5 6 9 10 10 10 10 9 9 8 8 8 8
9 9 11 13 17 18 18 15 10 7 6 5 5 5 4 3 1 1 1 1 1 0 1 2 4 4 5 5 10 12 12 11 10 10 9 9 9 9
8 7 9 10 10 9 12 13 13 13 10 6 6 5 4 2 2 2 2 1 1 1 0 1 1 2 3 5 13 13 13 12 11 11 10 10 10 10
9 9 9 9 9 7 9 9 10 9 8 7 6 6 5 4 3 2 1 1 1 1 1 1 1 1 1 3 11 13 13 12 12 12 11 11 11 10
10 10 9 9 11 9 8 8 8 6 10 11 9 7 7 6 4 3 2 1 0 0 0 1 1 1 1 2 6 13 13 12 12 12 12 11 11 9
7 8 13 11 12 10 6 6 6 5 5 4 4 2 2 1 1 1 2 2 2 1 1 1 2 2 2 2 1 4 6 10 13 13 13 13 11 5
6 5 6 10 12 11 9 6 4 3 1 2 2 2 1 1 0 0 1 2 2 1 2 2 2 2 2 3 2 2 4 4 5 7 12 15 14 8
5 5 4 7 8 8 6 5 6 4 1 1 2 2 1 1 1 1 0 0 1 2 3 1 1 2 2 3 3 3 3 3 3 3 4 8 11 13
5 6 5 4 3 2 3 4 4 2 1 2 2 2 2 1 0 1 2 2 3 4 4 3 3 2 2 3 3 3 3 3 2 2 2 3 4 4
3 3 3 1 1 1 0 1 1 2 2 2 2 1 1 0 1 1 1 2 2 3 3 4 4 4 3 4 3 4 3 3 2 2 2 3 3 3
2 1 2 2 2 2 1 1 1 1 1 1 2 1 1 1 1 1 1 2 2 2 2 3 4 4 6 5 3 4 3 3 3 2 2 3 4 4
3 1 1 1 1 1 1 1 2 2 1 1 1 1 2 2 2 2 2 2 2 2 3 2 2 3 3 2 3 3 3 3 2 3 3 3 4 3
2 1 1 1 1 1 1 2 2 2 1 1 1 2 2 2 2 2 2 2 2 3 3 3 2 2 3 4 4 4 3 3 3 3 3 3 4 4
2 1 1 1 1 1 2 2 2 1 1 1 1 2 2 3 3 3 2 2 3 3 4 3 2 1 2 3 4 5 8 5 4 4 4 4 4 5
1 1 2 2 2 1 1 1 1 1 1 1 1 1 2 2 3 3 3 3 3 4 4 3 3 4 4 3 4 4 5 9 9 5 4 4 4 4
1 2 2 1 0 0 0 1 1 1 1 1 1 1 1 2 3 3 3 4 4 4 4 3 4 3 3 4 5 5 5 4 9 14 12 9 4 4
2 1 1 2 1 1 0 1 1 0 0 1 1 1 2 2 3 3 4 4 4 4 4 4 3 3 4 4 5 5 6 6 4 4 5 12 18 19
Wind_Direction
86 118 120 124 132 136 139 147 142 143 143 154 142 134 134 133 144 139 136 146 146 143 142 139 134 134 136 131 123 113 104 91 71 48 30 20 13 8
75 79 83 96 108 113 118 117 120 130 130 140 148 154 149 148 155 152 150 159 165 166 164 162 163 165 167 164 160 157 151 143 109 342 340 340 342 343
75 87 89 92 102 107 109 108 110 115 122 127 139 149 143 141 149 159 157 167 175 183 183 183 186 188 188 187 187 195 206 224 249 272 291 305 314 319
80 86 91 95 95 99 104 111 114 119 131 135 140 140 142 150 155 171 172 178 179 191 193 194 196 199 201 201 204 211 221 237 254 266 279 289 297 303
79 84 89 96 101 106 110 114 118 119 120 128 135 138 143 153 161 186 181 177 187 183 194 202 205 206 208 209 212 217 224 236 248 259 270 280 288 293
74 75 78 85 97 107 108 111 116 118 121 125 130 136 139 155 163 182 183 199 193 178 187 191 203 208 212 214 218 222 227 234 242 252 262 271 278 284
78 78 77 79 78 84 93 100 110 116 121 127 132 135 142 155 176 190 173 181 177 156 179 192 185 198 211 221 223 225 228 233 238 246 256 264 271 277
85 88 85 81 81 80 80 78 82 102 115 122 125 129 133 138 147 153 133 125 166 196 178 218 176 194 204 202 208 215 224 231 236 243 251 259 265 270
68 71 78 72 71 83 81 74 67 67 77 97 104 112 111 105 96 90 86 93 157 206 122 271 209 205 207 194 196 209 219 227 234 242 249 256 262 266
62 64 67 56 48 71 84 77 68 59 65 71 73 73 71 51 40 62 96 126 251 256 168 256 251 241 159 166 199 209 219 228 236 243 250 257 262 266
61 56 59 57 42 71 88 89 86 79 74 78 82 85 81 65 43 19 357 37 13 267 345 316 308 298 243 205 208 214 224 231 239 247 252 259 263 272
78 67 55 52 48 56 73 81 83 83 93 94 85 85 102 90 25 358 1 22 29 13 2 354 340 351 323 290 209 205 229 241 243 247 249 253 256 258
87 73 52 48 52 54 61 65 64 44 85 125 137 144 152 160 188 45 40 52 33 347 334 7 353 350 330 311 302 247 218 227 225 239 242 245 246 233
86 85 72 58 55 50 52 36 20 1 330 119 109 107 97 83 67 60 3 303 231 252 275 287 277 287 296 300 291 284 270 248 232 229 228 229 238 240
79 93 96 70 48 50 43 12 349 342 50 74 77 81 96 99 275 273 268 268 267 263 256 233 231 252 266 272 278 279 281 272 248 242 247 234 224 221
101 114 114 67 357 47 342 319 14 43 38 44 55 51 54 304 286 286 291 290 287 280 256 239 234 235 254 268 274 284 280 274 273 261 254 269 263 241
351 203 194 191 199 195 165 137 118 108 50 32 35 13 350 338 316 299 290 295 299 300 289 268 253 235 231 235 258 279 287 283 275 273 274 275 270 256
354 278 176 150 141 128 130 133 117 89 52 23 17 4 354 341 327 316 308 309 314 317 314 306 308 310 305 282 221 252 284 291 294 295 288 282 282 275
312 275 92 63 56 64 64 69 79 83 38 356 4 2 349 334 331 325 327 329 324 318 307 301 306 320 325 318 292 241 251 279 289 287 282 280 276 272
246 178 118 102 68 45 56 64 72 95 74 6 18 9 347 332 329 323 320 327 321 310 299 296 297 297 288 286 287 274 235 232 256 266 274 280 276 274
149 107 84 78 78 77 72 83 67 66 69 348 325 308 308 308 313 315 312 305 287 282 288 288 275 258 253 268 273 273 258 224 224 232 251 269 280 283
68 89 94 97 92 208 177 165 194 175 186 246 261 287 301 305 305 305 304 302 294 293 300 294 291 280 273 276 280 280 279 266 240 241 245 236 232 245
53 4 229 181 169 195 66 18 335 12 93 330 324 315 307 297 290 289 292 293 300 305 305 304 309 308 297 291 289 287 289 287 276 256 251 243 237 242